Вернуться в каталог

KUIPER-00194

АктивенСвязьLEO
NORAD 68577·PAYLOAD·🇺🇸 United States

Запущен Apr 4, 2026 с Cape Canaveral Space Force Station

Loading…

Ближайшие Пролёты (ближайшие 24 часа)

TLE

СвежийSource: CelesTrak SupGP

Эпоха: Sep 14, 2026, 23:05 UTC

1 68577C 26072E   26257.96226852  .00001510  00000+0  19758-3 0  2578
2 68577  51.9005 153.6885 0000989  94.5518   5.5649 14.79935133    14

Отслеживайте KUIPER-00194 в реальном времени с AllMySat

Download on the App Store